Terminal Aerodrome Forecast
Issued by NWS Wilmington, OH

Current Version | Previous Version | Graphics & Text | Print | Product List | Glossary On
Versions: 1 2 3 4 5 6 7 8 9 10 11 12 13 14 15 16 17
000
FTUS41 KILN 271700 RRA
TAFILN
TAF
KILN 271741Z 2718/2818 05007KT P6SM BKN200
     FM280000 04003KT P6SM SCT250
     FM281500 05004KT P6SM FEW050=

USA.gov is the U.S. government's official web portal to all federal, state and local government web resources and services.